Year,Month,Day,Hour,Minute,Value (Times are PST for temperature in C)
2016,12,14,00,00,0.70
2016,12,14,00,01,0.80
2016,12,14,00,02,0.80
2016,12,14,00,03,0.80
2016,12,14,00,04,0.80
2016,12,14,00,05,0.80
2016,12,14,00,06,0.80
2016,12,14,00,07,0.80
2016,12,14,00,08,0.80
2016,12,14,00,09,0.80
2016,12,14,00,10,0.80
2016,12,14,00,11,0.70
2016,12,14,00,12,0.70
2016,12,14,00,13,0.70
2016,12,14,00,14,0.60
2016,12,14,00,15,0.60
2016,12,14,00,16,0.60
2016,12,14,00,17,0.60
2016,12,14,00,18,0.60
2016,12,14,00,19,0.60
2016,12,14,00,20,0.60
2016,12,14,00,21,0.60
2016,12,14,00,22,0.60
2016,12,14,00,23,0.60
2016,12,14,00,24,0.60
2016,12,14,00,25,0.70
2016,12,14,00,26,0.80
2016,12,14,00,27,0.80
2016,12,14,00,28,0.70
2016,12,14,00,29,0.70
2016,12,14,00,30,0.70
2016,12,14,00,31,0.70
2016,12,14,00,32,0.70
2016,12,14,00,33,0.70
2016,12,14,00,34,0.70
2016,12,14,00,35,0.70
2016,12,14,00,36,0.70
2016,12,14,00,37,0.70
2016,12,14,00,38,0.70
2016,12,14,00,39,0.70
2016,12,14,00,40,0.70
2016,12,14,00,41,0.70
2016,12,14,00,42,0.70
2016,12,14,00,43,0.70
2016,12,14,00,44,0.70
2016,12,14,00,45,0.70
2016,12,14,00,46,0.70
2016,12,14,00,47,0.70
2016,12,14,00,48,0.70
2016,12,14,00,49,0.70
2016,12,14,00,50,0.70
2016,12,14,00,51,0.70
2016,12,14,00,52,0.70
2016,12,14,00,53,0.70
2016,12,14,00,54,0.70
2016,12,14,00,55,0.70
2016,12,14,00,56,0.70
2016,12,14,00,57,0.70
2016,12,14,00,58,0.70
2016,12,14,00,59,0.60
2016,12,14,01,00,0.60
2016,12,14,01,01,0.60
2016,12,14,01,02,0.60
2016,12,14,01,03,0.60
2016,12,14,01,04,0.60
2016,12,14,01,05,0.70
2016,12,14,01,06,0.70
2016,12,14,01,07,0.70
2016,12,14,01,08,0.60
2016,12,14,01,09,0.60
2016,12,14,01,10,0.60
2016,12,14,01,11,0.60
2016,12,14,01,12,0.60
2016,12,14,01,13,0.60
2016,12,14,01,14,0.60
2016,12,14,01,15,0.50
2016,12,14,01,16,0.50
2016,12,14,01,17,0.60
2016,12,14,01,18,0.60
2016,12,14,01,19,0.50
2016,12,14,01,20,0.60
2016,12,14,01,21,0.60
2016,12,14,01,22,0.50
2016,12,14,01,23,0.50
2016,12,14,01,24,0.50
2016,12,14,01,25,0.50
2016,12,14,01,26,0.50
2016,12,14,01,27,0.50
2016,12,14,01,28,0.60
2016,12,14,01,29,0.60
2016,12,14,01,30,0.60
2016,12,14,01,31,0.60
2016,12,14,01,32,0.60
2016,12,14,01,33,0.60
2016,12,14,01,34,0.60
2016,12,14,01,35,0.70
2016,12,14,01,36,0.70
2016,12,14,01,37,0.70
2016,12,14,01,38,0.70
2016,12,14,01,39,0.70
2016,12,14,01,40,0.70
2016,12,14,01,41,0.70
2016,12,14,01,42,0.70
2016,12,14,01,43,0.60
2016,12,14,01,44,0.60
2016,12,14,01,45,0.60
2016,12,14,01,46,0.70
2016,12,14,01,47,0.70
2016,12,14,01,48,0.70
2016,12,14,01,49,0.70
2016,12,14,01,50,0.70
2016,12,14,01,51,0.70
2016,12,14,01,52,0.70
2016,12,14,01,53,0.70
2016,12,14,01,54,0.70
2016,12,14,01,55,0.70
2016,12,14,01,56,0.70
2016,12,14,01,57,0.80
2016,12,14,01,58,0.80
2016,12,14,01,59,0.80
2016,12,14,02,00,0.80
2016,12,14,02,01,0.80
2016,12,14,02,02,0.80
2016,12,14,02,03,0.80
2016,12,14,02,04,0.80
2016,12,14,02,05,0.80
2016,12,14,02,06,0.80
2016,12,14,02,07,0.80
2016,12,14,02,08,0.80
2016,12,14,02,09,0.80
2016,12,14,02,10,0.70
2016,12,14,02,11,0.70
2016,12,14,02,12,0.70
2016,12,14,02,13,0.70
2016,12,14,02,14,0.70
2016,12,14,02,15,0.70
2016,12,14,02,16,0.80
2016,12,14,02,17,0.80
2016,12,14,02,18,0.80
2016,12,14,02,19,0.80
2016,12,14,02,20,0.80
2016,12,14,02,21,0.80
2016,12,14,02,22,0.80
2016,12,14,02,23,0.70
2016,12,14,02,24,0.70
2016,12,14,02,25,0.70
2016,12,14,02,26,0.70
2016,12,14,02,27,0.70
2016,12,14,02,28,0.70
2016,12,14,02,29,0.70
2016,12,14,02,30,0.70
2016,12,14,02,31,0.70
2016,12,14,02,32,0.70
2016,12,14,02,33,0.70
2016,12,14,02,34,0.70
2016,12,14,02,35,0.70
2016,12,14,02,36,0.70
2016,12,14,02,37,0.70
2016,12,14,02,38,0.70
2016,12,14,02,39,0.70
2016,12,14,02,40,0.60
2016,12,14,02,41,0.70
2016,12,14,02,42,0.70
2016,12,14,02,43,0.70
2016,12,14,02,44,0.70
2016,12,14,02,45,0.70
2016,12,14,02,46,0.70
2016,12,14,02,47,0.80
2016,12,14,02,48,0.80
2016,12,14,02,49,0.70
2016,12,14,02,50,0.70
2016,12,14,02,51,0.70
2016,12,14,02,52,0.70
2016,12,14,02,53,0.70
2016,12,14,02,54,0.60
2016,12,14,02,55,0.70
2016,12,14,02,56,0.70
2016,12,14,02,57,0.70
2016,12,14,02,58,0.70
2016,12,14,02,59,0.70
2016,12,14,03,00,0.70
2016,12,14,03,01,0.70
2016,12,14,03,02,0.70
2016,12,14,03,03,0.70
2016,12,14,03,04,0.60
2016,12,14,03,05,0.60
2016,12,14,03,06,0.60
2016,12,14,03,07,0.60
2016,12,14,03,08,0.60
2016,12,14,03,09,0.70
2016,12,14,03,10,0.70
2016,12,14,03,11,0.70
2016,12,14,03,12,0.70
2016,12,14,03,13,0.70
2016,12,14,03,14,0.70
2016,12,14,03,15,0.60
2016,12,14,03,16,0.60
2016,12,14,03,17,0.60
2016,12,14,03,18,0.60
2016,12,14,03,19,0.60
2016,12,14,03,20,0.70
2016,12,14,03,21,0.70
2016,12,14,03,22,0.70
2016,12,14,03,23,0.70
2016,12,14,03,24,0.70
2016,12,14,03,25,0.70
2016,12,14,03,26,0.70
2016,12,14,03,27,0.70
2016,12,14,03,28,0.70
2016,12,14,03,29,0.70
2016,12,14,03,30,0.60
2016,12,14,03,31,0.60
2016,12,14,03,32,0.60
2016,12,14,03,33,0.60
2016,12,14,03,34,0.60
2016,12,14,03,35,0.60
2016,12,14,03,36,0.60
2016,12,14,03,37,0.60
2016,12,14,03,38,0.60
2016,12,14,03,39,0.50
2016,12,14,03,40,0.50
2016,12,14,03,41,0.50
2016,12,14,03,42,0.50
2016,12,14,03,43,0.50
2016,12,14,03,44,0.50
2016,12,14,03,45,0.50
2016,12,14,03,46,0.50
2016,12,14,03,47,0.50
2016,12,14,03,48,0.50
2016,12,14,03,49,0.50
2016,12,14,03,50,0.50
2016,12,14,03,51,0.60
2016,12,14,03,52,0.60
2016,12,14,03,53,0.60
2016,12,14,03,54,0.60
2016,12,14,03,55,0.60
2016,12,14,03,56,0.60
2016,12,14,03,57,0.50
2016,12,14,03,58,0.50
2016,12,14,03,59,0.50
2016,12,14,04,00,0.50
2016,12,14,04,01,0.50
2016,12,14,04,02,0.50
2016,12,14,04,03,0.50
2016,12,14,04,04,0.50
2016,12,14,04,05,0.50
2016,12,14,04,06,0.60
2016,12,14,04,07,0.60
2016,12,14,04,08,0.60
2016,12,14,04,09,0.60
2016,12,14,04,10,0.60
2016,12,14,04,11,0.60
2016,12,14,04,12,0.50
2016,12,14,04,13,0.50
2016,12,14,04,14,0.50
2016,12,14,04,15,0.50
2016,12,14,04,16,0.60
2016,12,14,04,17,0.60
2016,12,14,04,18,0.60
2016,12,14,04,19,0.60
2016,12,14,04,20,0.50
2016,12,14,04,21,0.50
2016,12,14,04,22,0.50
2016,12,14,04,23,0.50
2016,12,14,04,24,0.50
2016,12,14,04,25,0.60
2016,12,14,04,26,0.60
2016,12,14,04,27,0.60
2016,12,14,04,28,0.60
2016,12,14,04,29,0.60
2016,12,14,04,30,0.60
2016,12,14,04,31,0.60
2016,12,14,04,32,0.60
2016,12,14,04,33,0.60
2016,12,14,04,34,0.60
2016,12,14,04,35,0.60
2016,12,14,04,36,0.60
2016,12,14,04,37,0.60
2016,12,14,04,38,0.60
2016,12,14,04,39,0.60
2016,12,14,04,40,0.50
2016,12,14,04,41,0.50
2016,12,14,04,42,0.50
2016,12,14,04,43,0.50
2016,12,14,04,44,0.50
2016,12,14,04,45,0.50
2016,12,14,04,46,0.50
2016,12,14,04,47,0.50
2016,12,14,04,48,0.50
2016,12,14,04,49,0.50
2016,12,14,04,50,0.50
2016,12,14,04,51,0.50
2016,12,14,04,52,0.50
2016,12,14,04,53,0.50
2016,12,14,04,54,0.50
2016,12,14,04,55,0.50
2016,12,14,04,56,0.50
2016,12,14,04,57,0.60
2016,12,14,04,58,0.60
2016,12,14,04,59,0.60
2016,12,14,05,00,0.60
2016,12,14,05,01,0.60
2016,12,14,05,02,0.60
2016,12,14,05,03,0.60
2016,12,14,05,04,0.60
2016,12,14,05,05,0.60
2016,12,14,05,06,0.60
2016,12,14,05,07,0.60
2016,12,14,05,08,0.60
2016,12,14,05,09,0.60
2016,12,14,05,10,0.60
2016,12,14,05,11,0.60
2016,12,14,05,12,0.60
2016,12,14,05,13,0.70
2016,12,14,05,14,0.60
2016,12,14,05,15,0.60
2016,12,14,05,16,0.60
2016,12,14,05,17,0.60
2016,12,14,05,18,0.60
2016,12,14,05,19,0.60
2016,12,14,05,20,0.60
2016,12,14,05,21,0.60
2016,12,14,05,22,0.60
2016,12,14,05,23,0.60
2016,12,14,05,24,0.60
2016,12,14,05,25,0.60
2016,12,14,05,26,0.60
2016,12,14,05,27,0.60
2016,12,14,05,28,0.60
2016,12,14,05,29,0.60
2016,12,14,05,30,0.60
2016,12,14,05,31,0.60
2016,12,14,05,32,0.60
2016,12,14,05,33,0.60
2016,12,14,05,34,0.60
2016,12,14,05,35,0.60
2016,12,14,05,36,0.60
2016,12,14,05,37,0.60
2016,12,14,05,38,0.60
2016,12,14,05,39,0.60
2016,12,14,05,40,0.60
2016,12,14,05,41,0.60
2016,12,14,05,42,0.60
2016,12,14,05,43,0.60
2016,12,14,05,44,0.60
2016,12,14,05,45,0.60
2016,12,14,05,46,0.60
2016,12,14,05,47,0.60
2016,12,14,05,48,0.60
2016,12,14,05,49,0.60
2016,12,14,05,50,0.60
2016,12,14,05,51,0.60
2016,12,14,05,52,0.60
2016,12,14,05,53,0.50
2016,12,14,05,54,0.50
2016,12,14,05,55,0.50
2016,12,14,05,56,0.50
2016,12,14,05,57,0.50
2016,12,14,05,58,0.40
2016,12,14,05,59,0.40
2016,12,14,06,00,0.40
2016,12,14,06,01,0.40
2016,12,14,06,02,0.40
2016,12,14,06,03,0.40
2016,12,14,06,04,0.40
2016,12,14,06,05,0.40
2016,12,14,06,06,0.40
2016,12,14,06,07,0.40
2016,12,14,06,08,0.40
2016,12,14,06,09,0.40
2016,12,14,06,10,0.40
2016,12,14,06,11,0.40
2016,12,14,06,12,0.40
2016,12,14,06,13,0.40
2016,12,14,06,14,0.40
2016,12,14,06,15,0.40
2016,12,14,06,16,0.40
2016,12,14,06,17,0.40
2016,12,14,06,18,0.40
2016,12,14,06,19,0.40
2016,12,14,06,20,0.40
2016,12,14,06,21,0.40
2016,12,14,06,22,0.40
2016,12,14,06,23,0.40
2016,12,14,06,24,0.40
2016,12,14,06,25,0.40
2016,12,14,06,26,0.40
2016,12,14,06,27,0.40
2016,12,14,06,28,0.40
2016,12,14,06,29,0.40
2016,12,14,06,30,0.40
2016,12,14,06,31,0.40
2016,12,14,06,32,0.40
2016,12,14,08,47,0.10
2016,12,14,08,48,0.10
2016,12,14,08,49,0.10
2016,12,14,08,50,0.10
2016,12,14,08,51,0.10
2016,12,14,08,52,0.10
2016,12,14,08,53,0.10
2016,12,14,08,54,0.10
2016,12,14,08,55,0.10
2016,12,14,08,56,0.10
2016,12,14,08,57,0.10
2016,12,14,08,58,0.10
2016,12,14,08,59,0.10
2016,12,14,09,00,0.10
2016,12,14,09,01,0.10
2016,12,14,09,02,0.10
2016,12,14,09,03,0.10
2016,12,14,09,04,0.10
2016,12,14,09,05,0.20
2016,12,14,09,06,0.20
2016,12,14,09,07,0.20
2016,12,14,09,08,0.20
2016,12,14,09,09,0.20
2016,12,14,09,10,0.30
2016,12,14,09,11,0.30
2016,12,14,09,12,0.30
2016,12,14,09,13,0.30
2016,12,14,09,14,0.30
2016,12,14,09,15,0.30
2016,12,14,09,16,0.30
2016,12,14,09,17,0.30
2016,12,14,09,18,0.30
2016,12,14,09,19,0.30
2016,12,14,09,20,0.30
2016,12,14,09,21,0.30
2016,12,14,09,22,0.30
2016,12,14,09,23,0.30
2016,12,14,09,24,0.40
2016,12,14,09,25,0.40
2016,12,14,09,26,0.40
2016,12,14,09,27,0.40
2016,12,14,09,28,0.40
2016,12,14,09,29,0.40
2016,12,14,09,30,0.40
2016,12,14,09,31,0.40
2016,12,14,09,32,0.40
2016,12,14,09,33,0.50
2016,12,14,09,34,0.50
2016,12,14,09,35,0.50
2016,12,14,09,36,0.50
2016,12,14,09,37,0.50
2016,12,14,09,38,0.50
2016,12,14,09,39,0.50
2016,12,14,09,40,0.50
2016,12,14,09,41,0.60
2016,12,14,09,42,0.60
2016,12,14,09,43,0.60
2016,12,14,09,44,0.60
2016,12,14,09,45,0.60
2016,12,14,09,46,0.60
2016,12,14,09,47,0.60
2016,12,14,09,48,0.60
2016,12,14,09,49,0.70
2016,12,14,09,50,0.70
2016,12,14,09,51,0.70
2016,12,14,09,52,0.70
2016,12,14,09,53,0.80
2016,12,14,09,54,0.80
2016,12,14,09,55,0.80
2016,12,14,09,56,0.80
2016,12,14,09,57,0.80
2016,12,14,09,58,0.80
2016,12,14,09,59,0.80
2016,12,14,10,00,0.80
2016,12,14,10,01,0.80
2016,12,14,10,02,0.80
2016,12,14,10,03,0.80
2016,12,14,10,04,0.80
2016,12,14,10,05,0.80
2016,12,14,10,06,0.80
2016,12,14,10,07,0.80
2016,12,14,10,08,0.80
2016,12,14,10,09,0.80
2016,12,14,10,10,0.80
2016,12,14,10,11,0.80
2016,12,14,10,12,0.80
2016,12,14,10,13,0.80
2016,12,14,10,14,0.80
2016,12,14,10,15,0.80
2016,12,14,10,16,0.80
2016,12,14,10,17,0.80
2016,12,14,10,18,0.80
2016,12,14,10,19,0.80
2016,12,14,10,20,0.80
2016,12,14,10,21,0.80
2016,12,14,10,22,0.80
2016,12,14,10,23,0.80
2016,12,14,10,24,0.80
2016,12,14,10,25,0.80
2016,12,14,10,26,0.80
2016,12,14,10,27,0.80
2016,12,14,10,28,0.80
2016,12,14,10,29,0.80
2016,12,14,10,30,0.80
2016,12,14,10,31,0.80
2016,12,14,10,32,0.70
2016,12,14,10,33,0.70
2016,12,14,10,34,0.80
2016,12,14,10,35,0.80
2016,12,14,10,36,0.80
2016,12,14,10,37,0.80
2016,12,14,10,38,0.70
2016,12,14,10,39,0.70
2016,12,14,10,40,0.70
2016,12,14,10,41,0.60
2016,12,14,10,42,0.60
2016,12,14,10,43,0.60
2016,12,14,10,44,0.60
2016,12,14,10,45,0.60
2016,12,14,10,46,0.60
2016,12,14,10,47,0.60
2016,12,14,10,48,0.60
2016,12,14,10,49,0.60
2016,12,14,10,50,0.60
2016,12,14,10,51,0.70
2016,12,14,10,52,0.70
2016,12,14,10,53,0.70
2016,12,14,10,54,0.70
2016,12,14,10,55,0.70
2016,12,14,10,56,0.80
2016,12,14,10,57,0.80
2016,12,14,10,58,0.80
2016,12,14,10,59,0.80
2016,12,14,11,00,0.80
2016,12,14,11,01,0.80
2016,12,14,11,02,0.80
2016,12,14,11,03,0.80
2016,12,14,11,04,0.80
2016,12,14,11,05,0.80
2016,12,14,11,06,0.80
2016,12,14,11,07,0.80
2016,12,14,11,08,0.80
2016,12,14,11,09,0.80
2016,12,14,11,10,0.80
2016,12,14,11,11,0.80
2016,12,14,11,12,0.80
2016,12,14,11,13,0.80
2016,12,14,11,14,0.80
2016,12,14,11,15,0.80
2016,12,14,11,16,0.80
2016,12,14,11,17,0.80
2016,12,14,11,18,0.80
2016,12,14,11,19,0.80
2016,12,14,11,20,0.80
2016,12,14,11,21,0.80
2016,12,14,11,22,0.80
2016,12,14,11,23,0.80
2016,12,14,11,24,0.80
2016,12,14,11,25,0.80
2016,12,14,11,26,0.80
2016,12,14,11,27,0.90
2016,12,14,11,28,0.90
2016,12,14,11,29,0.90
2016,12,14,11,30,0.90
2016,12,14,11,31,0.90
2016,12,14,11,32,0.90
2016,12,14,11,33,0.90
2016,12,14,11,34,0.90
2016,12,14,11,35,0.90
2016,12,14,11,36,1.00
2016,12,14,11,37,1.00
2016,12,14,11,38,1.00
2016,12,14,11,39,1.00
2016,12,14,11,40,1.00
2016,12,14,11,41,1.00
2016,12,14,11,42,1.00
2016,12,14,11,43,0.90
2016,12,14,11,44,0.90
2016,12,14,11,45,0.90
2016,12,14,11,46,0.90
2016,12,14,11,47,0.90
2016,12,14,11,48,0.90
2016,12,14,11,49,0.90
2016,12,14,11,50,0.90
2016,12,14,11,51,0.90
2016,12,14,11,52,0.90
2016,12,14,11,53,1.00
2016,12,14,11,54,1.00
2016,12,14,11,55,1.00
2016,12,14,11,56,1.00
2016,12,14,11,57,1.10
2016,12,14,11,58,1.10
2016,12,14,11,59,1.10
2016,12,14,12,00,1.00
2016,12,14,12,01,1.00
2016,12,14,12,02,0.90
2016,12,14,12,03,0.90
2016,12,14,12,04,0.90
2016,12,14,12,05,0.80
2016,12,14,12,06,0.80
2016,12,14,12,07,0.80
2016,12,14,12,08,0.80
2016,12,14,12,09,0.80
2016,12,14,12,10,0.80
2016,12,14,12,11,0.80
2016,12,14,12,12,0.80
2016,12,14,12,13,0.80
2016,12,14,12,14,0.80
2016,12,14,12,15,0.70
2016,12,14,12,16,0.70
2016,12,14,12,17,0.80
2016,12,14,12,18,0.80
2016,12,14,12,19,0.80
2016,12,14,12,20,0.90
2016,12,14,12,21,0.90
2016,12,14,12,22,1.00
2016,12,14,12,23,1.00
2016,12,14,12,24,1.10
2016,12,14,12,25,1.10
2016,12,14,12,26,1.10
2016,12,14,12,27,1.20
2016,12,14,12,28,1.20
2016,12,14,12,29,1.20
2016,12,14,12,30,1.20
2016,12,14,12,31,1.20
2016,12,14,12,32,1.20
2016,12,14,12,33,1.20
2016,12,14,12,34,1.20
2016,12,14,12,35,1.10
2016,12,14,12,36,1.20
2016,12,14,12,37,1.10
2016,12,14,12,38,1.10
2016,12,14,12,39,1.10
2016,12,14,12,40,1.20
2016,12,14,12,41,1.20
2016,12,14,12,42,1.20
2016,12,14,12,43,1.20
2016,12,14,12,44,1.20
2016,12,14,12,45,1.20
2016,12,14,12,46,1.10
2016,12,14,12,47,1.10
2016,12,14,12,48,1.10
2016,12,14,12,49,1.20
2016,12,14,12,50,1.20
2016,12,14,12,51,1.20
2016,12,14,12,52,1.20
2016,12,14,12,53,1.20
2016,12,14,12,54,1.10
2016,12,14,12,55,1.10
2016,12,14,12,56,1.10
2016,12,14,12,57,1.10
2016,12,14,12,58,1.00
2016,12,14,12,59,1.00
2016,12,14,13,00,0.90
2016,12,14,13,01,0.90
2016,12,14,13,02,0.80
2016,12,14,13,03,0.80
2016,12,14,13,04,0.80
2016,12,14,13,05,0.80
2016,12,14,13,06,0.80
2016,12,14,13,07,0.80
2016,12,14,13,08,0.80
2016,12,14,13,09,0.80
2016,12,14,13,10,0.80
2016,12,14,13,11,0.80
2016,12,14,13,12,0.80
2016,12,14,13,13,0.80
2016,12,14,13,14,0.90
2016,12,14,13,15,0.90
2016,12,14,13,16,1.00
2016,12,14,13,17,1.00
2016,12,14,13,18,1.10
2016,12,14,13,19,1.10
2016,12,14,13,20,1.10
2016,12,14,13,21,1.10
2016,12,14,13,22,1.10
2016,12,14,13,23,1.10
2016,12,14,13,24,1.10
2016,12,14,13,25,1.10
2016,12,14,13,26,1.10
2016,12,14,13,27,1.00
2016,12,14,13,28,1.00
2016,12,14,13,29,1.00
2016,12,14,13,30,0.90
2016,12,14,13,31,0.90
2016,12,14,13,32,0.90
2016,12,14,13,33,0.90
2016,12,14,13,34,1.00
2016,12,14,13,35,1.00
2016,12,14,13,36,1.00
2016,12,14,13,37,1.00
2016,12,14,13,38,1.00
2016,12,14,13,39,1.00
2016,12,14,13,40,1.00
2016,12,14,13,41,1.00
2016,12,14,13,42,1.00
2016,12,14,13,43,1.10
2016,12,14,13,44,1.10
2016,12,14,13,45,1.10
2016,12,14,13,46,1.20
2016,12,14,13,47,1.20
2016,12,14,13,48,1.20
2016,12,14,13,49,1.30
2016,12,14,13,50,1.20
2016,12,14,13,51,1.20
2016,12,14,13,52,1.20
2016,12,14,13,53,1.20
2016,12,14,13,54,1.10
2016,12,14,13,55,1.10
2016,12,14,13,56,1.00
2016,12,14,13,57,1.00
2016,12,14,13,58,1.00
2016,12,14,13,59,0.90
2016,12,14,14,00,1.00
2016,12,14,14,01,1.00
2016,12,14,14,02,1.00
2016,12,14,14,03,1.00
2016,12,14,14,04,1.00
2016,12,14,14,05,1.00
2016,12,14,14,06,1.10
2016,12,14,14,07,1.10
2016,12,14,14,08,1.10
2016,12,14,14,09,1.10
2016,12,14,14,10,1.20
2016,12,14,14,11,1.20
2016,12,14,14,12,1.30
2016,12,14,14,13,1.30
2016,12,14,14,14,1.30
2016,12,14,14,15,1.30
2016,12,14,14,16,1.40
2016,12,14,14,17,1.40
2016,12,14,14,18,1.30
2016,12,14,14,19,1.30
2016,12,14,14,20,1.30
2016,12,14,14,21,1.20
2016,12,14,14,22,1.20
2016,12,14,14,23,1.10
2016,12,14,14,24,1.10
2016,12,14,14,25,1.10
2016,12,14,14,26,1.10
2016,12,14,14,27,1.10
2016,12,14,14,28,1.10
2016,12,14,14,29,1.00
2016,12,14,14,30,1.00
2016,12,14,14,31,1.00
2016,12,14,14,32,0.90
2016,12,14,14,33,0.90
2016,12,14,14,34,0.90
2016,12,14,14,35,0.90
2016,12,14,14,36,1.00
2016,12,14,14,37,1.00
2016,12,14,14,38,1.00
2016,12,14,14,39,1.10
2016,12,14,14,40,1.20
2016,12,14,14,41,1.10
2016,12,14,14,42,1.10
2016,12,14,14,43,1.00
2016,12,14,14,44,1.00
2016,12,14,14,45,1.00
2016,12,14,14,46,0.90
2016,12,14,14,47,0.90
2016,12,14,14,48,0.90
2016,12,14,14,49,0.80
2016,12,14,14,50,0.80
2016,12,14,14,51,0.80
2016,12,14,14,52,0.80
2016,12,14,14,53,0.80
2016,12,14,14,54,0.80
2016,12,14,14,55,0.80
2016,12,14,14,56,0.80
2016,12,14,14,57,0.80
2016,12,14,14,58,0.80
2016,12,14,14,59,0.80
2016,12,14,15,00,0.80
2016,12,14,15,01,0.80
2016,12,14,15,02,0.80
2016,12,14,15,03,0.80
2016,12,14,15,04,0.80
2016,12,14,15,05,0.80
2016,12,14,15,06,0.90
2016,12,14,15,07,0.90
2016,12,14,15,08,0.90
2016,12,14,15,09,0.90
2016,12,14,15,10,0.90
2016,12,14,15,11,0.90
2016,12,14,15,12,0.90
2016,12,14,15,13,0.90
2016,12,14,15,14,0.80
2016,12,14,15,15,0.80
2016,12,14,15,16,0.80
2016,12,14,15,17,0.90
2016,12,14,15,18,0.90
2016,12,14,15,19,0.90
2016,12,14,15,20,0.90
2016,12,14,15,21,0.90
2016,12,14,15,22,0.90
2016,12,14,15,23,0.90
2016,12,14,15,24,0.90
2016,12,14,15,25,0.90
2016,12,14,15,26,0.90
2016,12,14,15,27,0.90
2016,12,14,15,28,0.90
2016,12,14,15,29,0.90
2016,12,14,15,30,0.80
2016,12,14,15,31,0.80
2016,12,14,15,32,0.80
2016,12,14,15,33,0.80
2016,12,14,15,34,0.80
2016,12,14,15,35,0.80
2016,12,14,15,36,0.80
2016,12,14,15,37,0.80
2016,12,14,15,38,0.80
2016,12,14,15,39,0.90
2016,12,14,15,40,0.90
2016,12,14,15,41,1.00
2016,12,14,15,42,1.00
2016,12,14,15,43,1.00
2016,12,14,15,44,1.00
2016,12,14,15,45,1.00
2016,12,14,15,46,1.00
2016,12,14,15,47,1.00
2016,12,14,15,48,1.00
2016,12,14,15,49,1.00
2016,12,14,15,50,1.00
2016,12,14,15,51,0.90
2016,12,14,15,52,0.90
2016,12,14,15,53,0.90
2016,12,14,15,54,0.80
2016,12,14,15,55,0.80
2016,12,14,15,56,0.80
2016,12,14,15,57,0.80
2016,12,14,15,58,0.80
2016,12,14,15,59,0.80
2016,12,14,16,00,0.80
2016,12,14,16,01,0.80
2016,12,14,16,02,0.80
2016,12,14,16,03,0.80
2016,12,14,16,04,0.80
2016,12,14,16,05,0.80
2016,12,14,16,06,0.80
2016,12,14,16,07,0.80
2016,12,14,16,08,0.80
2016,12,14,16,09,0.80
2016,12,14,16,10,0.80
2016,12,14,16,11,0.80
2016,12,14,16,12,0.90
2016,12,14,16,13,0.90
2016,12,14,16,14,1.00
2016,12,14,16,15,1.00
2016,12,14,16,16,1.00
2016,12,14,16,17,0.90
2016,12,14,16,18,0.90
2016,12,14,16,19,0.80
2016,12,14,16,20,0.80
2016,12,14,16,21,0.80
2016,12,14,16,22,0.80
2016,12,14,16,23,0.80
2016,12,14,16,24,0.80
2016,12,14,16,25,0.80
2016,12,14,16,26,0.80
2016,12,14,16,27,0.80
2016,12,14,16,28,0.80
2016,12,14,16,29,0.80
2016,12,14,16,30,0.80
2016,12,14,16,31,0.80
2016,12,14,16,32,0.80
2016,12,14,16,33,0.80
2016,12,14,16,34,0.80
2016,12,14,16,35,0.80
2016,12,14,16,36,0.80
2016,12,14,16,37,0.80
2016,12,14,16,38,0.90
2016,12,14,16,39,0.90
2016,12,14,16,40,0.90
2016,12,14,16,41,1.00
2016,12,14,16,42,1.00
2016,12,14,16,43,0.90
2016,12,14,16,44,0.90
2016,12,14,16,45,0.90
2016,12,14,16,46,0.90
2016,12,14,16,47,0.80
2016,12,14,16,48,0.80
2016,12,14,16,49,0.80
2016,12,14,16,50,0.80
2016,12,14,16,51,0.80
2016,12,14,16,52,0.80
2016,12,14,16,53,0.80
2016,12,14,16,54,0.80
2016,12,14,16,55,0.80
2016,12,14,16,56,0.80
2016,12,14,16,57,0.80
2016,12,14,16,58,0.80
2016,12,14,16,59,0.80
2016,12,14,17,00,0.80
2016,12,14,17,01,0.80
2016,12,14,17,02,0.80
2016,12,14,17,03,0.80
2016,12,14,17,04,0.80
2016,12,14,17,05,0.90
2016,12,14,17,06,0.90
2016,12,14,17,07,0.90
2016,12,14,17,08,1.00
2016,12,14,17,09,1.00
2016,12,14,17,10,1.00
2016,12,14,17,11,1.10
2016,12,14,17,12,1.10
2016,12,14,17,13,1.10
2016,12,14,17,14,1.10
2016,12,14,17,15,1.10
2016,12,14,17,16,1.00
2016,12,14,17,17,1.00
2016,12,14,17,18,1.00
2016,12,14,17,19,1.00
2016,12,14,17,20,1.00
2016,12,14,17,21,1.00
2016,12,14,17,22,1.00
2016,12,14,17,23,1.00
2016,12,14,17,24,1.00
2016,12,14,17,25,1.00
2016,12,14,17,26,1.00
2016,12,14,17,27,1.00
2016,12,14,17,28,1.00
2016,12,14,17,29,1.00
2016,12,14,17,30,1.00
2016,12,14,17,31,1.00
2016,12,14,17,32,1.00
2016,12,14,17,33,1.00
2016,12,14,17,34,1.00
2016,12,14,17,35,1.10
2016,12,14,17,36,1.10
2016,12,14,17,37,1.10
2016,12,14,17,38,1.10
2016,12,14,17,39,1.10
2016,12,14,17,40,1.10
2016,12,14,17,41,1.10
2016,12,14,17,42,1.10
2016,12,14,17,43,1.20
2016,12,14,17,44,1.20
2016,12,14,17,45,1.20
2016,12,14,17,46,1.20
2016,12,14,17,47,1.20
2016,12,14,17,48,1.20
2016,12,14,17,49,1.30
2016,12,14,17,50,1.30
2016,12,14,17,51,1.20
2016,12,14,17,52,1.20
2016,12,14,17,53,1.20
2016,12,14,17,54,1.20
2016,12,14,17,55,1.20
2016,12,14,17,56,1.20
2016,12,14,17,57,1.20
2016,12,14,17,58,1.20
2016,12,14,17,59,1.20
2016,12,14,18,00,1.20
2016,12,14,18,01,1.20
2016,12,14,18,02,1.20
2016,12,14,18,03,1.20
2016,12,14,18,04,1.20
2016,12,14,18,05,1.20
2016,12,14,18,06,1.20
2016,12,14,18,07,1.20
2016,12,14,18,08,1.20
2016,12,14,18,09,1.20
2016,12,14,18,10,1.20
2016,12,14,18,11,1.20
2016,12,14,18,12,1.20
2016,12,14,18,13,1.20
2016,12,14,18,14,1.20
2016,12,14,18,15,1.20
2016,12,14,18,16,1.20
2016,12,14,18,17,1.30
2016,12,14,18,18,1.30
2016,12,14,18,19,1.30
2016,12,14,18,20,1.30
2016,12,14,18,21,1.30
2016,12,14,18,22,1.30
2016,12,14,18,23,1.30
2016,12,14,18,24,1.30
2016,12,14,18,25,1.30
2016,12,14,18,26,1.30
2016,12,14,18,27,1.30
2016,12,14,18,28,1.30
2016,12,14,18,29,1.30
2016,12,14,18,30,1.30
2016,12,14,18,31,1.20
2016,12,14,18,32,1.20
2016,12,14,18,33,1.20
2016,12,14,18,34,1.20
2016,12,14,18,35,1.10
2016,12,14,18,36,1.10
2016,12,14,18,37,1.10
2016,12,14,18,38,1.10
2016,12,14,18,39,1.10
2016,12,14,18,40,1.10
2016,12,14,18,41,1.10
2016,12,14,18,42,1.10
2016,12,14,18,43,1.10
2016,12,14,18,44,1.00
2016,12,14,18,45,1.00
2016,12,14,18,46,1.00
2016,12,14,18,47,1.00
2016,12,14,18,48,1.00
2016,12,14,18,49,1.00
2016,12,14,18,50,1.00
2016,12,14,18,51,1.00
2016,12,14,18,52,1.00
2016,12,14,18,53,1.00
2016,12,14,18,54,1.10
2016,12,14,18,55,1.10
2016,12,14,18,56,1.10
2016,12,14,18,57,1.10
2016,12,14,18,58,1.10
2016,12,14,18,59,1.10
2016,12,14,19,00,1.10
2016,12,14,19,01,1.10
2016,12,14,19,02,1.00
2016,12,14,19,03,1.00
2016,12,14,19,04,1.00
2016,12,14,19,05,1.00
2016,12,14,19,06,1.00
2016,12,14,19,07,1.00
2016,12,14,19,08,1.00
2016,12,14,19,09,1.00
2016,12,14,19,10,1.00
2016,12,14,19,11,1.00
2016,12,14,19,12,1.00
2016,12,14,19,13,1.00
2016,12,14,19,14,1.00
2016,12,14,19,15,1.00
2016,12,14,19,16,1.00
2016,12,14,19,17,1.10
2016,12,14,19,18,1.10
2016,12,14,19,19,1.10
2016,12,14,19,20,1.10
2016,12,14,19,21,1.10
2016,12,14,19,22,1.10
2016,12,14,19,23,1.10
2016,12,14,19,24,1.10
2016,12,14,19,25,1.10
2016,12,14,19,26,1.10
2016,12,14,19,27,1.20
2016,12,14,19,28,1.20
2016,12,14,19,29,1.30
2016,12,14,19,30,1.30
2016,12,14,19,31,1.30
2016,12,14,19,32,1.30
2016,12,14,19,33,1.20
2016,12,14,19,34,1.20
2016,12,14,19,35,1.20
2016,12,14,19,36,1.20
2016,12,14,19,37,1.20
2016,12,14,19,38,1.20
2016,12,14,19,39,1.30
2016,12,14,19,40,1.30
2016,12,14,19,41,1.30
2016,12,14,19,42,1.30
2016,12,14,19,43,1.30
2016,12,14,19,44,1.30
2016,12,14,19,45,1.30
2016,12,14,19,46,1.30
2016,12,14,19,47,1.30
2016,12,14,19,48,1.30
2016,12,14,19,49,1.30
2016,12,14,19,50,1.40
2016,12,14,19,51,1.40
2016,12,14,19,52,1.40
2016,12,14,19,53,1.40
2016,12,14,19,54,1.40
2016,12,14,19,55,1.40
2016,12,14,19,56,1.40
2016,12,14,19,57,1.40
2016,12,14,19,58,1.40
2016,12,14,19,59,1.40
2016,12,14,20,00,1.40
2016,12,14,20,01,1.50
2016,12,14,20,02,1.50
2016,12,14,20,03,1.60
2016,12,14,20,04,1.60
2016,12,14,20,05,1.60
2016,12,14,20,06,1.60
2016,12,14,20,07,1.50
2016,12,14,20,08,1.40
2016,12,14,20,09,1.40
2016,12,14,20,10,1.30
2016,12,14,20,11,1.30
2016,12,14,20,12,1.20
2016,12,14,20,13,1.20
2016,12,14,20,14,1.20
2016,12,14,20,15,1.20
2016,12,14,20,16,1.10
2016,12,14,20,17,1.10
2016,12,14,20,18,1.10
2016,12,14,20,19,1.10
2016,12,14,20,20,1.00